| time (UTC) | temp F | wind direction | speed MPH | gust MPH | rain 1hr in | rain 24hr in | rain mn in | humidity % | barometer mb |
| 20260506101544 | 56 | 46 | 5.0 | 9.0 | 0.00 | 0.08 | 0.00 | 86 | 1017.7 |
| 20260506100043 | 57 | 42 | 4.0 | 6.0 | 0.00 | 0.08 | 0.00 | 85 | 1017.6 |
| 20260506094538 | 58 | 51 | 2.0 | 3.0 | 0.00 | 0.08 | 0.00 | 85 | 1017.6 |
| 20260506093034 | 58 | 51 | 0.0 | 3.0 | 0.00 | 0.08 | 0.00 | 85 | 1017.6 |
| 20260506091532 | 58 | 49 | 2.0 | 3.0 | 0.00 | 0.08 | 0.00 | 85 | 1017.8 |
| 20260506090040 | 58 | 49 | 2.0 | 6.0 | 0.00 | 0.08 | 0.00 | 84 | 1017.9 |
| 20260506084528 | 58 | 53 | 2.0 | 4.0 | 0.00 | 0.08 | 0.00 | 84 | 1018.0 |
| 20260506083037 | 58 | 47 | 4.0 | 6.0 | 0.00 | 0.08 | 0.00 | 84 | 1018.2 |
| 20260506081524 | 59 | 57 | 4.0 | 6.0 | 0.00 | 0.08 | 0.00 | 84 | 1018.2 |
| 20260506073019 | 59 | 48 | 2.0 | 4.0 | 0.00 | 0.08 | 0.00 | 83 | 1018.5 |
| 20260506071521 | 59 | 45 | 2.0 | 5.0 | 0.00 | 0.08 | 0.00 | 83 | 1018.4 |
| 20260506061512 | 61 | 309 | 4.0 | 8.0 | 0.01 | 0.08 | 0.08 | 82 | 1018.0 |
| 20260506044506 | 61 | 223 | 5.0 | 12.0 | 0.00 | 0.07 | 0.07 | 81 | 1017.7 |
| 20260506043010 | 61 | 273 | 7.0 | 10.0 | 0.00 | 0.07 | 0.07 | 81 | 1017.6 |
| 20260506041503 | 61 | 258 | 7.0 | 9.0 | 0.00 | 0.07 | 0.07 | 80 | 1017.6 |
| 20260506040001 | 61 | 228 | 7.0 | 10.0 | 0.00 | 0.07 | 0.07 | 80 | 1017.3 |
| 20260506034602 | 61 | 265 | 8.0 | 10.0 | 0.00 | 0.07 | 0.07 | 81 | 1017.1 |
| 20260506033056 | 61 | 254 | 9.0 | 11.0 | 0.00 | 0.07 | 0.07 | 81 | 1016.8 |
| 20260506031558 | 61 | 249 | 9.0 | 12.0 | 0.00 | 0.07 | 0.07 | 79 | 1016.5 |
| 20260506030055 | 61 | 242 | 9.0 | 14.0 | 0.00 | 0.07 | 0.07 | 79 | 1016.4 |
| 20260506024555 | 61 | 273 | 11.0 | 14.0 | 0.00 | 0.07 | 0.07 | 80 | 1016.3 |
| 20260506023055 | 61 | 245 | 9.0 | 13.0 | 0.00 | 0.07 | 0.07 | 79 | 1016.2 |
| 20260506021558 | 61 | 248 | 11.0 | 15.0 | 0.00 | 0.07 | 0.07 | 79 | 1016.1 |
| 20260506020053 | 61 | 240 | 12.0 | 16.0 | 0.01 | 0.07 | 0.07 | 78 | 1016.0 |
| 20260506014553 | 62 | 253 | 12.0 | 17.0 | 0.01 | 0.07 | 0.07 | 79 | 1015.8 |
| 20260506013051 | 61 | 245 | 13.0 | 17.0 | 0.01 | 0.07 | 0.07 | 77 | 1015.7 |
| 20260506011554 | 62 | 236 | 14.0 | 18.0 | 0.01 | 0.07 | 0.07 | 77 | 1015.4 |
| 20260506010055 | 61 | 243 | 13.0 | 16.0 | 0.00 | 0.06 | 0.06 | 78 | 1015.5 |
| 20260506004550 | 62 | 236 | 13.0 | 16.0 | 0.00 | 0.06 | 0.06 | 78 | 1015.7 |
| 20260506003046 | 61 | 248 | 13.0 | 17.0 | 0.00 | 0.06 | 0.06 | 77 | 1015.4 |
| 20260506001542 | 62 | 220 | 13.0 | 17.0 | 0.00 | 0.06 | 0.06 | 77 | 1015.7 |
| 20260506000039 | 62 | 239 | 12.0 | 16.0 | 0.00 | 0.06 | 0.06 | 78 | 1015.6 |
| 20260505234559 | 61 | 232 | 12.0 | 16.0 | 0.00 | 0.06 | 0.06 | 77 | 1015.5 |
| 20260505233034 | 61 | 233 | 11.0 | 15.0 | 0.00 | 0.06 | 0.06 | 80 | 1015.6 |
| 20260505231531 | 62 | 242 | 12.0 | 17.0 | 0.00 | 0.06 | 0.06 | 79 | 1015.6 |
| 20260505230028 | 62 | 234 | 14.0 | 17.0 | 0.00 | 0.06 | 0.06 | 79 | 1015.8 |
| 20260505224531 | 61 | 229 | 13.0 | 17.0 | 0.00 | 0.06 | 0.06 | 78 | 1015.8 |
| 20260505223024 | 62 | 234 | 11.0 | 16.0 | 0.00 | 0.06 | 0.06 | 78 | 1015.9 |
| 20260505221523 | 62 | 236 | 12.0 | 16.0 | 0.01 | 0.06 | 0.06 | 76 | 1015.9 |
| 20260505220021 | 62 | 245 | 11.0 | 16.0 | 0.01 | 0.06 | 0.06 | 79 | 1015.9 |
| 20260505214519 | 62 | 221 | 12.0 | 16.0 | 0.01 | 0.06 | 0.06 | 78 | 1016.0 |
| 20260505213020 | 61 | 243 | 14.0 | 21.0 | 0.01 | 0.06 | 0.06 | 78 | 1016.1 |
| 20260505211534 | 61 | 242 | 14.0 | 17.0 | 0.00 | 0.05 | 0.05 | 78 | 1016.2 |
| 20260505210016 | 61 | 247 | 11.0 | 17.0 | 0.00 | 0.05 | 0.05 | 78 | 1016.3 |
| 20260505204515 | 61 | 246 | 13.0 | 16.0 | 0.00 | 0.05 | 0.05 | 79 | 1016.5 |
| 20260505203012 | 61 | 236 | 13.0 | 17.0 | 0.00 | 0.05 | 0.05 | 80 | 1016.5 |
| 20260505201512 | 61 | 234 | 13.0 | 17.0 | 0.00 | 0.05 | 0.05 | 79 | 1016.6 |
| 20260505200010 | 61 | 263 | 12.0 | 17.0 | 0.00 | 0.05 | 0.05 | 80 | 1016.6 |
| 20260505194509 | 61 | 249 | 13.0 | 17.0 | 0.01 | 0.05 | 0.05 | 78 | 1016.6 |
| 20260505193007 | 61 | 245 | 14.0 | 18.0 | 0.01 | 0.05 | 0.05 | 79 | 1016.6 |
| 20260505191505 | 61 | 275 | 13.0 | 16.0 | 0.01 | 0.05 | 0.05 | 80 | 1016.8 |
| 20260505190010 | 61 | 242 | 12.0 | 17.0 | 0.01 | 0.05 | 0.05 | 81 | 1016.6 |
| 20260505184503 | 61 | 264 | 13.0 | 15.0 | 0.00 | 0.04 | 0.04 | 80 | 1016.7 |
| 20260505183001 | 61 | 262 | 14.0 | 17.0 | 0.00 | 0.04 | 0.04 | 80 | 1016.7 |
| 20260505181501 | 61 | 242 | 8.0 | 13.0 | 0.00 | 0.04 | 0.04 | 80 | 1016.7 |
| 20260505180109 | 60 | 261 | 9.0 | 13.0 | 0.00 | 0.04 | 0.04 | 79 | 1016.7 |
| 20260505174557 | 60 | 269 | 10.0 | 13.0 | 0.00 | 0.04 | 0.04 | 80 | 1016.4 |
| 20260505173054 | 60 | 253 | 12.0 | 14.0 | 0.00 | 0.04 | 0.04 | 80 | 1016.4 |
| 20260505171653 | 60 | 254 | 13.0 | 16.0 | 0.01 | 0.04 | 0.04 | 82 | 1016.1 |
| 20260505170052 | 60 | 256 | 11.0 | 18.0 | 0.01 | 0.04 | 0.04 | 82 | 1016.0 |
| 20260505164550 | 60 | 248 | 14.0 | 18.0 | 0.01 | 0.04 | 0.04 | 81 | 1015.8 |
| 20260505163047 | 60 | 246 | 13.0 | 16.0 | 0.01 | 0.04 | 0.04 | 83 | 1015.7 |
| 20260505161545 | 60 | 270 | 8.0 | 11.0 | 0.00 | 0.03 | 0.03 | 86 | 1015.5 |
| 20260505153048 | 59 | 278 | 13.0 | 16.0 | 0.00 | 0.03 | 0.03 | 89 | 1015.2 |
| 20260505151545 | 58 | 281 | 13.0 | 15.0 | 0.01 | 0.03 | 0.03 | 93 | 1015.2 |
| 20260505124534 | 57 | 42 | 2.0 | 3.0 | 0.01 | 0.02 | 0.02 | 94 | 1014.2 |
| 20260505123030 | 57 | 40 | 2.0 | 4.0 | 0.01 | 0.02 | 0.02 | 94 | 1014.0 |
| 20260505121536 | 57 | 304 | 1.0 | 9.0 | 0.01 | 0.02 | 0.02 | 94 | 1014.2 |
| 20260505120030 | 57 | 281 | 9.0 | 11.0 | 0.00 | 0.01 | 0.01 | 94 | 1014.3 |
| 20260505114528 | 56 | 246 | 11.0 | 18.0 | 0.00 | 0.01 | 0.01 | 93 | 1014.2 |
| 20260505113037 | 58 | 265 | 0.0 | 2.0 | 0.00 | 0.01 | 0.01 | 93 | 1013.9 |
| 20260505111538 | 57 | 265 | 1.0 | 2.0 | 0.00 | 0.01 | 0.01 | 93 | 1014.0 |